Weather History for Evansville, IN

Change the Weather History Date:

Thursday, October 24, 2013

  Actual Average Record
Temperature  
Mean Temperature 40 °F 55 °F  
Max Temperature 47 °F 67 °F 82 °F (1934)
Min Temperature 33 °F 43 °F 23 °F (1981)
Degree Days  
Heating Degree Days 25 10  
Month to date heating degree days 156 177  
Since 1 July heating degree days 166 224  
Cooling Degree Days 0 0  
Month to date cooling degree days 55 28  
Year to date cooling degree days 1462 1394  
Moisture  
Dew Point 30 °F    
Average Humidity 57    
Maximum Humidity 76    
Minimum Humidity 37    
Precipitation  
Precipitation T in 0.11 in 1.05 in (1986)
Month to date precipitation 4.84 2.48  
Year to date precipitation 42.98 36.45  
Snow  
Snow 0.00 in 0.00 in 0.00 in (2002)
Month to date snowfall 0.0 0.1  
Since 1 July snowfall 0.0 0.1  
Since 1 September snowfall 0.0 0.1  
Snow Depth 0.00 in    
Sea Level Pressure  
Sea Level Pressure 30.24 in    
Wind  
Wind Speed 7 mph (WNW)    
Max Wind Speed 22 mph    
Max Gust Speed 28 mph    
Visibility 10 miles    
Events      
T = Trace of Precipitation, MM = Missing Value Source: NWS Daily Summary

Daily Weather History Graph

Daily Weather History Graph

Search for Another Location

Airport:

Trip Planner

Search our weather history database for the weather conditions in past years. The results will help you decide how hot, cold, wet, or windy it might be!

Date:

Astronomy

Oct. 24, 2013 Rise Set
Actual Time 7:07 AM CDT 6:00 PM CDT
Civil Twilight 6:40 AM CDT 6:26 PM CDT
Nautical Twilight 6:10 AM CDT 6:57 PM CDT
Astronomical Twilight 5:39 AM CDT 7:28 PM CDT
Moon 10:26 PM CDT (10/24) 12:06 PM CDT (10/24)
Length of Visible Light 11h 46m
Length of Day
10h 52m
Waning Gibbous, 71% of the Moon is Illuminated
Oct 24
Waning Gibbous
Oct 26
Last Quarter
Nov 3
New
Nov 9
First Quarter
Nov 17
Full

Hourly Weather History & Observations

Time (CDT) Temp. Windchill Dew Point Humidity Pressure Visibility Wind Dir Wind Speed Gust Speed Precip Events Conditions
12:54 AM 43.0 °F 40.3 °F 33.1 °F 68% 30.13 in 10.0 mi West 4.6 mph - N/A   Overcast
1:54 AM 43.0 °F 41.3 °F 34.0 °F 71% 30.14 in 10.0 mi West 3.5 mph - N/A   Overcast
2:54 AM 43.0 °F 41.3 °F 35.1 °F 74% 30.14 in 10.0 mi West 3.5 mph - N/A   Overcast
3:54 AM 42.1 °F 39.2 °F 34.0 °F 73% 30.14 in 10.0 mi WNW 4.6 mph - N/A   Overcast
4:54 AM 42.1 °F - 34.0 °F 73% 30.15 in 10.0 mi Calm Calm - N/A   Overcast
5:54 AM 41.0 °F 39.0 °F 34.0 °F 76% 30.16 in 10.0 mi West 3.5 mph - N/A   Overcast
6:54 AM 41.0 °F 37.1 °F 34.0 °F 76% 30.17 in 10.0 mi WNW 5.8 mph - N/A   Overcast
7:54 AM 41.0 °F 38.0 °F 34.0 °F 76% 30.19 in 10.0 mi WNW 4.6 mph - N/A   Overcast
8:54 AM 43.0 °F 39.5 °F 33.1 °F 68% 30.21 in 10.0 mi WNW 5.8 mph - N/A   Overcast
9:54 AM 44.1 °F 38.6 °F 33.1 °F 65% 30.22 in 10.0 mi WNW 10.4 mph - N/A   Overcast
10:51 AM 42.8 °F 35.8 °F 33.8 °F 70% 30.23 in 10.0 mi WNW 13.8 mph 17.3 mph N/A   Overcast
10:54 AM 43.0 °F 37.2 °F 34.0 °F 71% 30.24 in 10.0 mi West 10.4 mph - N/A   Overcast
11:04 AM 42.8 °F 37.0 °F 33.8 °F 70% 30.23 in 10.0 mi WNW 10.4 mph 18.4 mph N/A   Overcast
11:54 AM 43.0 °F 37.2 °F 32.0 °F 65% 30.25 in 10.0 mi WNW 10.4 mph - 0.00 in   Overcast
12:09 PM 42.8 °F 37.5 °F 33.8 °F 70% 30.24 in 10.0 mi WNW 9.2 mph - N/A   Overcast
12:29 PM 42.8 °F 36.2 °F 28.4 °F 57% 30.24 in 10.0 mi WNW 12.7 mph - N/A   Overcast
12:54 PM 44.1 °F 37.7 °F 28.0 °F 53% 30.25 in 10.0 mi NW 12.7 mph 21.9 mph N/A   Overcast
1:54 PM 44.1 °F 38.6 °F 23.0 °F 43% 30.25 in 10.0 mi WNW 10.4 mph - N/A   Overcast
2:54 PM 46.0 °F 39.9 °F 21.9 °F 39% 30.26 in 10.0 mi WNW 13.8 mph 23.0 mph N/A   Overcast
3:54 PM 46.0 °F 39.3 °F 23.0 °F 40% 30.28 in 10.0 mi NNW 16.1 mph 24.2 mph N/A   Overcast
4:54 PM 44.1 °F 36.8 °F 21.9 °F 42% 30.30 in 10.0 mi NW 16.1 mph 21.9 mph N/A   Overcast
5:54 PM 43.0 °F 38.8 °F 23.0 °F 45% 30.31 in 10.0 mi NNW 6.9 mph - N/A   Overcast
6:54 PM 42.1 °F - 23.0 °F 47% 30.32 in 10.0 mi Calm Calm - N/A   Overcast
7:54 PM 39.0 °F - 28.0 °F 65% 30.35 in 10.0 mi Calm Calm - N/A   Overcast
8:54 PM 39.0 °F 35.7 °F 25.0 °F 57% 30.36 in 10.0 mi NW 4.6 mph - N/A   Overcast
9:54 PM 37.0 °F 33.3 °F 26.1 °F 65% 30.37 in 10.0 mi WNW 4.6 mph - N/A   Clear
10:54 PM 35.1 °F 31.0 °F 25.0 °F 67% 30.39 in 10.0 mi NW 4.6 mph - N/A   Clear
11:54 PM 34.0 °F 28.8 °F 25.0 °F 70% 30.40 in 10.0 mi NW 5.8 mph - N/A   Clear